Theta_e
310 311 311 309 307 307 306 309 306 310 311 316 320 322 324 325 326 326 327 330 338 338 339 352 354 358 359 360 361 359 362 363 366 371 371 371 368 368 368 361 359 356 354 352
308 310 310 308 310 309 308 308 308 310 310 319 322 324 324 324 325 325 326 327 335 341 343 351 355 359 361 361 362 363 366 365 369 372 370 370 368 367 365 361 355 354 352 348
304 309 309 305 309 310 311 312 310 306 311 317 318 321 324 329 326 326 327 331 329 341 346 354 354 360 360 364 364 365 367 367 370 372 370 369 367 365 362 357 353 350 348 346
305 308 299 310 316 314 312 313 315 314 315 316 317 320 325 328 329 329 329 331 332 339 344 350 352 354 361 359 365 367 367 368 370 372 370 367 362 361 358 354 353 349 347 344
303 304 308 311 315 314 313 313 316 315 317 318 318 318 321 325 328 330 333 335 334 339 344 351 354 360 364 362 361 363 363 367 368 368 368 365 359 357 354 352 350 347 345 344
307 302 300 310 319 322 321 308 318 320 320 318 318 311 318 327 325 327 332 334 336 339 344 348 356 355 360 361 362 362 364 364 368 369 366 360 358 357 355 351 348 346 344 344
306 305 308 319 319 322 308 311 327 327 326 326 322 320 324 326 329 330 334 336 344 347 345 358 359 359 360 359 357 360 359 360 363 363 364 361 355 356 351 345 345 344 344 343
307 304 301 322 321 314 323 328 328 329 329 327 329 327 324 334 335 336 337 339 343 344 348 353 360 361 360 359 364 365 364 363 363 363 358 356 355 353 346 346 342 342 340 340
309 309 324 324 324 326 327 327 329 331 330 330 330 330 333 335 337 339 341 343 345 348 353 352 359 362 359 367 368 365 362 360 359 358 355 355 351 344 339 343 340 338 339 345
316 320 320 322 323 325 327 326 331 332 333 332 333 336 337 338 339 340 342 344 346 347 349 351 361 362 362 363 362 362 357 352 350 347 348 348 343 342 340 340 340 343 342 341
318 320 320 321 322 323 324 326 328 332 334 334 335 333 335 336 337 338 340 341 343 344 346 348 352 353 356 357 358 353 349 345 344 342 344 338 328 334 343 329 326 341 341 341
315 321 321 318 320 322 322 323 325 325 327 328 329 331 332 334 339 338 337 339 340 344 347 349 351 351 354 355 354 350 347 345 344 341 341 341 336 328 301 302 299 300 303 318
316 324 319 317 317 316 317 317 319 321 323 324 325 326 327 326 329 326 339 342 342 343 345 348 348 347 351 352 351 350 346 345 341 338 340 339 337 335 332 315 299 297 298 300
324 323 319 320 317 315 314 314 316 317 318 317 320 322 321 322 325 327 328 335 342 344 344 344 344 344 348 347 349 347 344 327 340 339 337 336 334 333 331 329 326 324 303 306
316 319 318 319 318 317 316 314 313 314 317 319 320 319 321 321 321 323 328 330 335 341 341 343 342 342 345 344 343 342 340 338 339 337 336 331 333 331 330 329 329 327 317 309
311 312 313 313 314 315 315 312 312 312 316 316 317 320 321 320 321 324 326 332 332 333 339 341 342 342 344 344 342 339 336 327 330 334 332 331 330 328 328 328 326 324 322 322
308 307 308 306 308 310 311 313 314 316 316 319 321 322 322 320 322 325 328 332 337 340 340 340 338 341 341 339 337 334 332 330 327 331 331 330 329 328 327 327 327 323 323 320
309 309 313 313 311 311 313 315 314 317 320 321 323 322 323 324 324 327 330 331 332 332 336 338 339 338 338 338 335 332 332 329 329 328 328 328 327 327 327 325 324 324 318 313
314 314 314 316 316 315 315 316 317 319 321 322 323 323 325 326 327 330 332 331 331 331 332 335 326 332 337 333 331 332 329 326 327 328 328 323 327 327 326 325 324 322 319 319
314 317 316 317 318 317 318 319 320 319 320 321 322 322 323 324 326 327 328 329 331 330 334 333 334 335 336 329 326 329 328 328 325 326 326 326 326 325 326 316 324 322 322 322
312 313 314 315 316 318 319 321 320 318 320 322 322 322 322 325 325 327 324 322 328 329 330 327 330 329 329 328 326 328 327 326 323 324 324 324 322 323 323 322 322 323 322 322
313 314 313 314 316 318 319 318 319 319 321 321 321 321 322 322 324 325 328 323 325 315 324 324 324 318 322 317 325 323 322 323 322 322 322 323 323 320 321 321 320 320 321 320
315 314 314 315 315 314 316 316 316 316 316 317 319 319 319 319 320 320 320 325 325 318 321 319 313 315 314 320 320 321 320 320 319 319 319 320 320 320 319 320 320 319 319 319
315 316 316 316 317 315 315 316 316 317 317 318 318 318 318 318 317 319 322 316 316 316 321 318 315 311 307 319 320 320 319 318 317 317 316 304 315 315 316 318 318 318 319 316
317 318 318 315 315 312 314 316 315 314 317 318 318 318 318 317 315 316 320 319 312 315 319 312 312 312 317 318 318 318 318 317 317 316 316 314 313 312 312 313 314 315 317 317
315 312 313 316 314 313 313 313 311 312 313 313 314 315 316 316 316 315 317 314 317 315 316 320 321 320 320 318 318 318 318 318 316 316 314 314 314 313 312 312 313 313 313 313
312 306 311 311 311 311 312 312 311 311 312 313 312 314 315 315 315 314 311 316 316 316 316 317 317 315 316 318 317 317 317 317 312 317 316 316 315 315 314 313 312 312 312 312
Wind_Speed
27 26 23 23 26 27 33 28 29 23 29 27 24 24 19 20 16 16 17 11 12 15 16 17 18 19 20 18 19 19 19 19 18 17 16 15 16 16 15 17 16 17 18 17
20 24 26 24 24 30 27 29 28 29 30 22 26 24 18 17 18 20 15 14 13 14 16 16 19 18 18 19 17 17 17 17 16 16 16 16 14 15 15 15 15 16 16 16
21 20 17 23 25 24 23 28 26 28 27 26 27 25 23 20 20 19 19 19 16 14 17 15 18 16 17 17 16 16 14 16 15 16 17 16 15 15 15 15 15 15 16 15
17 20 26 16 24 27 27 27 25 28 27 26 27 27 26 21 20 22 22 21 20 13 16 18 20 20 16 18 15 15 15 14 15 14 15 14 14 14 14 14 16 14 15 14
17 19 16 18 19 6 5 13 18 22 20 24 26 25 26 26 26 21 21 20 19 15 17 17 19 18 17 16 17 16 16 14 14 15 15 15 16 17 15 15 14 13 14 14
18 24 25 13 7 2 2 12 13 16 20 23 21 19 17 20 26 23 14 12 15 12 15 19 17 20 18 17 18 17 16 15 14 14 14 15 15 13 11 11 14 12 11 14
18 16 19 13 5 4 9 5 9 11 16 19 20 18 17 14 22 14 11 14 10 11 15 14 15 16 16 16 17 16 16 15 14 13 12 12 11 11 13 10 9 10 9 11
20 21 17 9 12 11 6 6 10 13 12 16 19 22 16 4 3 6 10 12 14 14 13 14 14 15 14 13 13 13 13 14 13 12 10 9 12 10 8 7 9 9 9 10
17 18 14 10 10 4 6 5 8 8 7 9 5 5 7 5 4 6 11 12 12 14 15 12 15 14 14 12 12 12 12 11 12 10 8 7 8 8 7 8 8 9 8 6
11 12 14 15 11 8 8 4 4 6 9 5 12 13 13 13 11 9 10 12 13 16 17 13 13 14 14 12 12 12 13 10 7 10 10 10 6 6 6 7 8 6 5 6
22 21 21 16 14 13 11 10 8 17 16 16 16 13 13 12 12 10 9 12 13 14 16 14 14 15 13 12 13 13 13 12 11 9 7 8 7 4 5 5 3 3 3 3
11 19 21 16 14 15 12 13 13 15 17 16 15 14 16 14 11 10 11 10 12 14 15 15 13 13 13 13 13 13 13 11 9 9 9 10 10 8 14 11 6 9 4 3
7 20 24 21 19 16 18 17 14 14 15 15 16 15 14 13 11 11 12 11 10 12 14 14 12 13 11 11 11 11 11 13 10 10 10 9 7 7 7 7 12 12 11 12
15 22 19 12 10 13 10 13 11 12 12 12 13 13 13 12 11 11 11 8 7 7 13 11 11 11 8 9 8 8 9 8 8 8 8 8 7 7 6 6 6 6 11 9
18 20 18 17 15 17 10 9 8 9 8 9 11 9 10 11 9 8 8 5 6 8 8 10 11 11 8 8 7 8 9 8 8 7 6 5 5 4 5 8 6 10 7 5
17 20 20 18 18 16 12 13 2 9 11 7 7 6 6 6 4 6 4 6 3 4 6 8 7 8 12 8 8 8 6 7 2 8 7 6 4 5 5 7 9 7 8 8
16 16 14 12 11 12 11 10 11 6 4 8 5 3 2 3 4 6 5 8 9 9 7 7 6 6 7 6 9 7 7 6 5 6 7 7 6 5 4 5 8 10 8 11
13 11 8 8 5 5 1 4 6 9 7 3 4 7 5 7 5 6 6 9 7 9 4 3 4 6 6 6 7 4 8 10 9 5 5 5 5 4 4 6 5 5 8 7
10 12 8 8 7 4 3 4 4 4 6 5 6 7 7 4 4 9 8 7 8 8 5 5 2 3 5 5 7 5 3 6 2 2 4 4 4 4 4 3 2 9 9 9
8 9 8 11 11 8 4 6 6 4 4 6 7 5 7 5 5 8 6 8 8 7 5 6 4 4 4 2 7 5 2 3 6 4 5 2 2 3 2 3 2 6 7 7
11 9 9 9 7 6 9 4 5 7 6 6 5 5 5 5 3 6 4 5 6 5 5 2 3 4 6 0 6 2 4 5 5 4 3 6 4 7 7 5 2 2 5 3
9 8 10 9 8 8 9 8 7 6 5 5 6 5 4 3 5 6 7 5 6 4 7 5 8 11 8 10 4 2 3 4 5 5 5 4 3 5 3 5 3 2 2 5
8 10 8 6 9 8 8 7 8 8 7 7 6 6 5 5 6 5 4 6 3 8 6 9 7 7 10 8 3 1 1 2 3 4 5 3 4 5 6 8 9 7 10 10
7 6 5 6 7 7 7 5 4 5 3 6 5 5 7 7 5 6 6 7 3 5 5 6 6 2 9 9 4 2 2 4 4 4 4 2 4 5 6 7 7 8 8 5
5 5 5 6 3 5 4 1 5 5 6 7 6 5 0 4 5 5 5 4 5 4 6 8 10 8 6 7 9 5 4 5 2 4 4 5 5 6 7 7 8 8 8 7
9 6 5 5 6 7 7 7 7 6 5 3 3 4 5 4 7 5 5 1 3 4 8 9 10 9 9 6 7 7 6 3 5 7 6 5 7 6 6 8 6 6 7 7
6 9 7 7 9 8 8 7 8 8 8 7 9 8 6 6 6 6 4 9 8 8 8 8 4 2 6 8 10 9 6 7 5 7 7 6 6 6 6 6 7 7 7 7
Wind_Direction
226 255 227 221 218 228 240 237 239 243 233 236 240 234 215 210 231 238 237 213 208 235 222 193 193 188 194 201 195 199 195 195 196 192 196 198 201 198 199 192 199 198 192 195
232 233 241 252 226 210 226 247 251 250 254 244 242 248 243 229 232 234 243 251 206 223 231 196 194 194 188 198 196 198 190 195 188 184 190 197 197 206 194 196 206 204 205 198
229 238 238 240 246 251 242 219 227 243 254 256 257 255 247 230 239 248 250 257 252 211 219 201 191 188 195 193 195 189 198 187 187 182 185 189 193 196 200 203 199 205 210 207
231 220 230 238 237 235 247 254 252 233 233 239 248 253 258 257 233 237 248 259 262 200 211 200 196 188 188 187 189 185 188 192 182 182 180 184 191 196 190 202 206 198 210 211
230 232 236 198 256 301 281 268 243 259 264 240 237 245 243 244 247 243 235 243 235 198 205 197 191 175 174 178 182 182 182 189 181 182 186 186 195 194 197 203 205 215 191 215
209 239 231 230 107 30 301 257 268 286 294 272 244 233 241 225 248 234 241 259 262 213 195 183 186 172 172 181 176 179 177 179 178 183 189 193 198 198 195 202 208 210 214 215
225 225 240 111 105 145 217 276 339 309 291 289 283 251 253 252 227 237 223 233 221 201 184 167 182 166 170 178 176 172 169 170 172 183 186 189 183 191 189 201 201 208 203 221
222 229 221 130 162 231 30 339 328 302 287 277 271 272 225 167 211 207 215 208 191 176 160 166 153 144 160 164 157 156 157 160 164 167 183 176 185 186 168 177 196 214 197 220
217 221 102 76 78 80 25 354 312 308 309 278 281 60 101 132 109 149 170 179 158 137 133 149 137 146 152 149 146 142 149 141 153 154 168 144 169 140 153 189 205 211 207 211
126 122 110 78 70 78 74 57 338 39 51 94 95 89 87 84 88 100 122 125 128 134 123 138 125 116 121 132 131 141 122 116 119 127 136 138 144 152 168 193 202 214 211 220
119 127 110 100 82 77 70 56 73 54 57 55 70 75 85 83 94 102 112 122 127 125 116 112 110 115 121 132 132 134 132 136 136 134 126 104 69 35 131 65 346 217 168 248
137 149 101 97 93 82 69 70 49 73 89 86 82 84 71 65 55 91 94 107 106 99 100 103 104 110 120 125 130 130 136 140 134 138 153 147 141 119 55 68 57 57 67 95
347 111 104 98 88 73 60 39 65 73 48 62 63 78 86 78 75 69 61 53 74 95 99 105 110 111 113 121 137 156 153 133 146 156 165 166 158 153 152 92 71 58 57 69
80 101 112 107 94 76 61 35 22 56 64 60 47 60 52 51 52 60 52 52 91 110 105 113 115 94 103 123 133 125 107 115 156 149 148 150 147 165 169 154 174 132 50 70
54 82 91 102 103 89 60 22 9 45 41 44 72 50 34 40 40 33 39 37 69 90 101 112 117 122 116 113 130 144 157 157 156 147 147 132 145 177 210 154 168 126 126 130
85 81 72 63 65 60 73 113 34 35 7 34 358 44 42 89 48 15 43 48 49 103 117 100 119 145 135 155 173 157 114 63 145 149 135 155 165 198 198 126 130 142 162 171
86 76 66 51 41 41 27 15 7 53 13 348 23 69 61 109 118 109 46 57 38 45 66 88 95 99 108 168 205 172 149 143 318 162 175 162 177 187 189 189 167 164 191 162
94 90 87 107 106 97 82 103 31 319 335 34 46 56 24 66 51 83 70 58 66 83 52 67 123 152 188 172 238 192 169 159 199 189 148 151 185 185 187 224 206 118 109 132
115 129 124 133 155 193 202 117 103 28 336 56 76 90 96 123 114 115 123 154 141 139 142 143 106 255 133 53 313 238 262 143 125 142 80 90 171 243 231 233 49 120 135 152
75 83 114 132 144 158 157 128 135 112 64 6 44 64 81 61 92 86 58 67 51 87 124 124 174 125 133 130 279 277 285 37 73 40 40 334 38 61 218 158 251 125 148 178
91 83 83 64 66 84 86 87 87 61 39 62 55 35 55 92 21 41 117 104 85 83 104 210 345 61 106 307 254 85 63 48 55 68 132 269 166 228 168 198 280 79 188 193
73 77 80 81 90 89 82 71 65 65 53 44 37 34 71 85 88 79 66 103 118 203 282 73 69 19 34 334 276 98 145 195 184 174 207 219 248 275 186 165 192 292 271 152
82 74 65 78 82 70 46 65 63 47 46 41 32 17 0 24 93 95 62 42 347 52 33 76 69 9 343 283 56 86 1 306 299 300 297 314 304 292 282 198 196 207 219 201
89 73 46 64 67 55 53 37 41 67 32 94 45 34 338 90 35 56 77 87 115 11 75 110 115 322 311 298 208 225 277 270 266 268 283 28 280 275 279 271 258 245 246 238
23 11 39 358 351 96 105 178 195 114 151 162 173 174 252 74 40 21 124 106 142 250 97 174 192 206 248 271 289 259 238 242 287 332 338 316 289 280 280 265 257 264 283 280
24 355 54 29 11 357 18 16 18 53 355 33 41 64 38 11 75 325 39 347 279 177 267 187 199 209 248 269 296 312 322 290 203 219 226 261 285 292 285 288 264 238 238 250
81 13 33 31 30 14 18 359 337 4 37 11 339 351 13 356 25 328 353 347 353 344 342 334 316 84 318 324 324 320 314 301 303 286 278 279 273 255 251 250 260 258 257 256